Home > Time Zones > World Clock > Weather > Canada > Ajax > Past weeks

Flag for Canada Weather past 2 weeks in Ajax, Ontario, Canada

Now
59 °F

Light rain. Overcast.


Feels Like: 56 °F
Forecast: 59 / 68 °F
Wind: 16 mph from North

Location: Toronto Buttonville

Current Time: Jul 28, 2014 at 9:32:36 AM

Latest Report: Jul 28, 2014 at 9:00 AM


Visibility: 12 mi

Pressure: 29.70 "Hg

Humidity: 94%

Dew point: 57 °F

Location of AjaxLocation

Historic Weather in Ajax — Graph

°F

Ajax temperature yesterday

Maximum temperature yesterday: 84 °F (at 4:00 PM)
Minimum temperature yesterday: 63 °F (at 8:00 PM)
Average temperature yesterday: 73 °F

Past Weeks' High & Low Weather Summary

 TemperatureHumidityPressure
High84 °F (Jul 13, 3:00 PM)100% (Jul 20, 4:00 AM)30.25 "Hg (Jul 20, 4:00 AM)
Low48 °F (Jul 17, 6:00 AM)33% (Jul 18, 8:00 PM)29.61 "Hg (Jul 27, 6:00 PM)
Average67 °F70%29.95 "Hg
* Reported Jul 13 8:00 AM — Jul 28 8:00 AM, Ajax, Weather by CustomWeather, © 2014

Note: Actual official high and low records may vary slightly from our data, if they occured in-between our weather recording intervals... More about our weather records

Advertising

Ajax weather history for previous 24 hours

 ConditionsComfort  
Time TempWeatherWind HumidityBarometerVisibility
8:00 AM
Jul 28
59 °FLight rain. Mostly cloudy.12 mph94%29.68 "Hg12 mi
7:00 AM59 °FLight rain. Mostly cloudy.10 mph94%29.66 "Hg10 mi
6:00 AM61 °FLight rain. Mostly cloudy.10 mph94%29.64 "Hg7 mi
5:00 AM63 °FLight rain. Passing clouds.10 mph94%29.62 "Hg6 mi
4:00 AM63 °FSprinkles. Overcast.9 mph100%29.62 "Hg6 mi
3:00 AM63 °FSprinkles. Mostly cloudy.6 mph100%29.62 "Hg8 mi
2:00 AM63 °FSprinkles. Overcast.7 mph100%29.62 "Hg7 mi
1:00 AM63 °FSprinkles. Overcast.8 mph100%29.64 "Hg8 mi
12:56 AMN/ASprinkles.8 mphN/AN/A8 mi
12:00 AM63 °FThunderstorms. Overcast.2 mph100%29.68 "Hg7 mi
11:00 PM
Jul 27
64 °FSprinkles. Overcast.8 mph94%29.65 "Hg8 mi
10:46 PMN/ARain showers.8 mphN/AN/A6 mi
10:00 PM64 °FThunderstorms. Mostly cloudy.3 mph100%29.67 "Hg7 mi
9:00 PM64 °FThunderstorms. Cloudy.5 mph94%29.64 "Hg7 mi
8:00 PM63 °FStrong thunderstorms. Fog.14 mph100%29.65 "Hg1 mi
7:00 PM79 °FPartly sunny.3 mph61%29.61 "Hg15 mi
6:00 PM82 °FPartly sunny.5 mph51%29.61 "Hg15 mi
5:00 PM82 °FPartly sunny.9 mph48%29.62 "Hg15 mi
4:00 PM84 °FPartly sunny.7 mph45%29.63 "Hg15 mi
3:00 PM82 °FPartly sunny.8 mph48%29.66 "Hg15 mi
2:00 PM79 °FBroken clouds.7 mph54%29.68 "Hg15 mi
1:00 PM79 °FBroken clouds.5 mph54%29.69 "Hg15 mi
12:00 PM77 °FBroken clouds.5 mph61%29.70 "Hg15 mi
11:00 AM77 °FPartly sunny.7 mph61%29.70 "Hg15 mi
10:00 AM73 °FBroken clouds.10 mph69%29.70 "Hg15 mi
9:00 AM72 °FPartly sunny.8 mph69%29.70 "Hg15 mi
Weather by CustomWeather, © 2014

See weather overviewHow to use our weather pages